This demonstration page uses our WeatherBlox Daily Observations layout. Learn more.

Left ArrowRight Arrow

Hourly Observations for April 6, 2018

Temp ( °F °C ) Dew Point ( °F °C ) Humidity (%) Winds ( mph kmh ) Pressure ( in mb ) Visibility ( mi km ) Precip ( " mm )
12:53 am 00:53 Mostly Cloudy 42 5.6 32 0 68 68 Calm 30.03 1017 10 16 0.00 0.00
1:53 am 01:53 Cloudy 45 7.2 33 0.6 63 63 SSE 3 6 30.01 1016 10 16 0.00 0.00
2:53 am 02:53 Cloudy 46 7.8 29 -1.7 51 51 Calm 29.97 1015 10 16 0.00 0.00
3:53 am 03:53 Partly Cloudy 46 7.8 28 -2.2 50 50 SSW 3 6 29.94 1014 10 16 0.00 0.00
4:53 am 04:53 Clear 44 6.7 30 -1.1 58 58 Calm 29.93 1013 10 16 0.00 0.00
5:53 am 05:53 Partly Cloudy 45 7.2 29 -1.7 54 54 SW 3 6 29.91 1013 10 16 0.00 0.00
6:53 am 06:53 Cloudy 47 8.3 27 -2.8 46 46 SW 8 13 29.90 1013 10 16 0.00 0.00
7:53 am 07:53 Mostly Cloudy 46 7.8 29 -1.7 51 51 WSW 7 11 29.92 1013 10 16 0.00 0.00
8:53 am 08:53 Sunny 47 8.3 30 -1.1 52 52 WSW 7 11 29.93 1014 10 16 0.00 0.00
9:53 am 09:53 Sunny 50 10 31 -0.6 48 48 WSW 10 17 29.93 1014 10 16 0.00 0.00
10:53 am 10:53 Mostly Sunny 53 11.7 34 1.1 48 48 W 10 17 29.92 1013 10 16 0.00 0.00
11:53 am 11:53 Sunny 56 13.3 35 1.7 46 46 WSW 14 22 29.91 1013 10 16 0.00 0.00
12:53 pm 12:53 Sunny 58 14.4 35 1.7 42 42 W 12 19 29.90 1013 10 16 0.00 0.00
1:53 pm 13:53 Sunny 60 15.6 33 0.6 36 36 W 12 19 29.87 1011 10 16 0.00 0.00
2:53 pm 14:53 Sunny 60 15.6 33 0.6 36 36 WSW 14 22 29.87 1011 10 16 0.00 0.00
3:53 pm 15:53 Mostly Cloudy 57 13.9 31 -0.6 37 37 WNW 14 22 29.87 1012 10 16 0.00 0.00
4:53 pm 16:53 Cloudy 55 12.8 31 -0.6 40 40 NW 14 22 29.87 1011 10 16 0.00 0.00
5:53 pm 17:53 Cloudy 51 10.6 30 -1.1 44 44 NW 16 26 29.89 1012 10 16 0.00 0.00
6:53 pm 18:53 Cloudy 44 6.7 31 -0.6 60 60 NNW 18 30 29.91 1013 10 16 0.00 0.00
7:53 pm 19:53 Cloudy with Light Rain 38 3.3 33 0.6 83 83 NW 20 31 29.97 1015 8 13 0.00 0.03
8:49 pm 20:49 Cloudy with Light Rain 36 2 34 1 93 93 NW 12 19 30.00 1016 5 8 0.04 1.02
8:53 pm 20:53 Cloudy with Light Rain 35 1.7 33 0.6 93 93 NW 14 22 29.99 1016 6 10 0.04 1.02
9:37 pm 21:37 Cloudy with Light Snow 35 1.7 28 -2.2 76 76 NW 17 28 30.03 1017 9 14 0.01 0.25
9:53 pm 21:53 Cloudy with Light Snow 33 0.6 28 -2.2 82 82 NW 15 24 30.03 1017 4 6 0.01 0.25
10:09 pm 22:09 Cloudy with Light Snow 33 0.6 29 -1.7 85 85 WNW 14 22 30.09 1019 3 4 0.00 0.03
10:14 pm 22:14 Cloudy with Light Snow 33 0.6 28 -2.2 82 82 NW 16 26 30.09 1019 3 5 0.00 0.03
10:53 pm 22:53 Cloudy with Light Snow 32 0 29 -1.7 88 88 NW 12 19 30.04 1017 7 11 0.00 0.03
11:53 pm 23:53 Cloudy with Light Snow 32 0 28 -2.2 85 85 NNW 7 11 30.04 1017 6 10 0.00 0.03

Powered by AerisWeather